This is the latest recevied weather packets stored in our database for station/object N7YET. If no packets are shown the sender has not sent any weather packets the latest 10 day(s).
| Time | Temp. | Humidity | Pressure | Rain* | Wind** | Luminosity | Snow |
|---|---|---|---|---|---|---|---|
| 1788487061 | 17.22° C | 37% | 1007.9 hPa | 0 mm | - | - | - |
| 1788486461 | 17.22° C | 40% | 1008.9 hPa | 0 mm | - | - | - |
| 1788485861 | 17.22° C | 40% | 1008.9 hPa | 0 mm | - | - | - |
| 1788485261 | 17.22° C | 39% | 1008.9 hPa | 0 mm | - | - | - |
| 1788484661 | 17.78° C | 39% | 1008.9 hPa | 0 mm | - | - | - |
| 1788484061 | 17.78° C | 39% | 1008.9 hPa | 0 mm | - | - | - |
| 1788483461 | 17.78° C | 39% | 1008.9 hPa | 0 mm | - | - | - |
| 1788482861 | 17.78° C | 37% | 1008.9 hPa | 0 mm | - | - | - |
| 1788482261 | 18.33° C | 33% | 1008.9 hPa | 0 mm | - | - | - |
| 1788481661 | 19.44° C | 31% | 1008.9 hPa | 0 mm | - | - | - |
| 1788481061 | 19.44° C | 30% | 1007.9 hPa | 0 mm | - | - | - |
| 1788480431 | 19.44° C | 30% | 1007.9 hPa | 0 mm | - | - | - |
| 1788479831 | 20° C | 29% | 1007.9 hPa | 0 mm | - | - | - |
| 1788479231 | 20° C | 29% | 1007.9 hPa | 0 mm | - | - | - |
| 1788478631 | 20.56° C | 29% | 1007.9 hPa | 0 mm | - | - | - |
| 1788478031 | 21.11° C | 29% | 1007.9 hPa | 0 mm | - | - | - |
| 1788477431 | 21.11° C | 29% | 1008.9 hPa | 0 mm | - | - | - |
| 1788476831 | 21.67° C | 30% | 1008.9 hPa | 0 mm | - | - | - |
| 1788476231 | 21.67° C | 29% | 1008.9 hPa | 0 mm | - | - | - |
| 1788475631 | 21.67° C | 29% | 1008.9 hPa | 0 mm | - | - | - |
| 1788475031 | 21.11° C | 29% | 1008.9 hPa | 0 mm | - | - | - |
| 1788474431 | 21.11° C | 30% | 1008.9 hPa | 0 mm | - | - | - |
| 1788473831 | 21.67° C | 30% | 1008.9 hPa | 0 mm | - | - | - |
| 1788473231 | 21.67° C | 30% | 1008.9 hPa | 0 mm | - | - | - |
| 1788472631 | 21.67° C | 31% | 1008.9 hPa | 0 mm | - | - | - |
* Rain latest hour (hover to see other rain measurements)
** Current wind speed in m/s (hover to see current wind gust speed)